Vertical_Velocity
-1 -1 -2 -2 -3 2 -2 -0 -1 -1 -2 -2 -2 -4 -1 -1 -12 1 9 4 2 -2 1 6 1 1 1 -0 2 -1 -1 -0 -4 0 0 -1 1 -0 -1 1 1 -3 1
-1 -2 -1 -2 -1 -3 -1 -2 -3 -0 1 -1 2 0 -2 -4 -2 -5 -6 5 3 14 3 -3 6 4 0 -0 -2 -0 0 1 -2 -2 -2 -2 -2 1 -0 -3 -1 -1 -0
-2 -3 -4 -2 0 -3 -2 -2 -2 -2 -2 -1 -2 -1 1 3 -2 -2 2 4 5 2 7 3 -6 5 2 3 1 -1 -4 -1 0 -2 1 -2 -0 -2 1 -2 -2 0 -1
-1 -2 -2 -2 -5 -4 -4 -1 -1 0 -0 -5 -2 0 0 3 2 2 -1 -1 2 14 -1 3 2 -2 8 14 16 5 2 -5 -1 -0 -3 0 1 -1 -0 1 -1 -2 2
-1 -4 -3 -0 0 -1 -1 -2 -1 -4 -2 -3 -3 -2 2 2 -1 2 1 -2 -1 -1 7 5 6 16 19 1 5 9 9 2 -3 -1 -1 -2 0 1 -2 1 2 -1 -1
-2 -2 -2 -1 -1 -2 -2 -2 -2 -1 -5 -6 -3 -3 -1 0 1 -8 -0 7 -7 11 -3 4 4 0 7 -42 -27 3 10 -1 -1 -2 -2 -0 -2 -0 0 -1 1 1 0
-3 -4 -4 -3 -1 -1 -3 -6 -6 -3 -2 -4 -9 2 4 1 -6 4 -6 -4 6 -10 12 5 6 13 -3 5 6 -1 11 -2 -4 0 -1 -2 1 -2 0 -1 -1 1 -0
-4 -6 -4 -4 -5 -1 1 1 -2 0 -0 -4 -12 -6 -14 10 5 -1 -3 -5 -3 -1 -1 2 -4 -2 2 10 32 62 17 25 -2 -5 -1 -2 -2 -2 -0 1 -1 -0 1
-4 -4 -5 -5 -4 -5 -2 -2 -3 -4 -1 2 -2 -9 -17 -10 -25 4 6 6 1 -6 -4 -1 3 -3 -4 3 12 -21 21 -5 20 -15 -6 -2 -4 -2 -3 -1 0 -1 1
-4 -3 0 1 -1 -0 2 -4 -3 -4 -3 -2 3 3 2 -4 -11 -34 3 -1 -5 -1 -2 -0 -2 -1 -8 -4 15 -0 33 20 28 28 10 5 -1 -2 -2 -2 -0 -0 -1
-3 -2 -5 -6 -4 -7 -1 -1 0 -2 -3 -2 -3 0 1 3 3 -14 -29 -4 3 -3 -1 -5 -0 -2 -3 -16 16 27 24 32 -0 -19 10 4 7 0 -1 -1 0 0 -1
-1 -2 -3 -4 -1 -3 -4 -0 -2 -2 -0 2 -1 -1 -3 -3 2 -5 -11 -6 -27 5 -3 5 -3 -2 -3 -9 -17 11 14 2 7 -44 30 -0 8 -0 -2 -2 -0 1 -0
-4 -2 1 2 -3 -3 -2 -2 -2 -3 -2 -2 -2 -0 -1 1 -2 -2 -6 -6 -25 2 -7 0 7 -4 -3 -2 -6 -13 12 11 9 9 7 54 22 -2 1 2 -3 2 -0
-3 -2 -2 -5 -0 -4 -1 -3 -0 -2 -1 -2 -1 -2 -3 -1 -1 -1 -5 -12 -19 -8 -1 -5 3 2 -5 -4 -2 -6 -12 4 10 2 11 19 20 -21 4 4 4 0 1
-0 -2 -5 -5 -2 -3 -1 -4 -1 -2 -2 -2 -2 -2 -3 -1 0 0 -2 -1 -10 -31 5 12 -14 6 5 -1 -0 -3 -7 -7 -6 0 9 -13 56 35 -20 10 6 8 2
-4 -3 -3 -3 -2 -1 -2 -3 -1 -2 -1 -1 -2 -2 0 -1 0 -0 -1 -1 -2 -13 -29 -13 -0 -6 -1 4 -0 -4 0 -8 -2 -8 -25 7 14 -16 25 9 10 7 2
-2 -4 -5 -2 -2 -1 -1 -1 -0 -2 -1 -1 -1 -3 -1 -3 -1 -1 -1 -1 -3 -8 -20 7 -5 -3 -4 -8 0 -6 1 -2 -5 6 -12 -3 6 0 -18 62 8 4 0
-1 -4 -4 -1 -1 -1 -2 -0 -2 -1 -2 -0 -0 -1 -1 -2 -0 -2 -2 -1 -4 -2 -11 -12 1 -0 -1 -3 -3 -9 -5 6 -4 -4 0 8 -10 -1 46 76 7 -1 8
-3 -4 -2 -0 1 -1 -3 1 -3 -2 -2 -2 -2 -2 -1 -2 -1 -1 -1 -1 -2 -4 -4 -12 -1 -1 -5 -1 -4 -2 -3 -4 -6 -6 -5 6 -11 -12 -2 1 -12 2 3
-3 -3 -4 -4 4 -3 -2 0 -1 -1 -2 -1 -2 -2 -1 -1 -3 -2 -2 -1 -2 -3 -5 -7 -2 -5 -4 4 -4 -12 -0 -3 -8 -1 1 -6 9 -2 -11 -7 -3 -0 -0
-2 -3 -3 -6 -0 -7 -1 0 -4 -1 -2 -1 -1 -0 -1 -0 -1 -1 -5 -1 -2 -3 -3 -6 -5 -3 -1 -1 -2 -2 -11 -7 7 -1 -4 2 -10 11 -1 -6 -5 -4 -2
-2 -1 -3 -5 -1 -9 -2 1 -5 -4 -2 -3 -2 0 -1 -1 -1 -0 -0 -1 -1 -9 -2 -7 -5 -4 -1 -3 -3 -5 -6 -6 -17 18 -1 -28 1 -2 6 -3 -2 -2 2
-0 -2 -4 -1 -2 -9 -4 -1 -3 -3 -4 -3 -4 -5 -1 -1 -1 -2 2 -0 3 1 -5 -8 -7 -4 -4 -0 0 -5 -1 -11 -5 15 -9 -17 -7 -7 -3 -6 0 2 4
-1 -2 -2 -0 -3 -5 -3 -1 -3 -4 -2 -0 -3 -4 -4 -3 -1 -3 -3 -1 1 2 1 3 -1 -5 -2 -7 -1 -7 -6 -7 -0 7 7 -39 12 -17 -8 -5 4 5 -5
-2 -1 -2 -2 -2 -2 -6 -2 -4 -2 -1 1 -2 -2 -4 -3 -2 -2 -3 -2 -1 3 4 2 1 2 -1 -1 -5 -8 -3 -9 -2 4 2 -11 4 6 26 -2 11 2 1
-3 -2 -0 -1 -3 -2 -4 -2 -5 -3 -2 -3 2 0 -1 -2 -1 -1 -2 -3 -5 -1 -1 5 8 6 4 6 2 -3 -3 -3 2 1 12 -5 3 12 -0 -4 10 1 -6
Height
3129 3127 3125 3123 3121 3120 3118 3116 3114 3113 3111 3109 3108 3106 3105 3103 3101 3100 3100 3100 3101 3102 3103 3105 3106 3107 3107 3107 3107 3107 3107 3107 3107 3106 3107 3109 3109 3111 3113 3115 3117 3118 3119
3124 3122 3119 3117 3116 3112 3110 3108 3107 3105 3103 3101 3100 3097 3096 3095 3094 3093 3093 3093 3095 3096 3095 3097 3099 3099 3101 3102 3102 3101 3102 3103 3104 3103 3103 3105 3106 3107 3109 3111 3113 3114 3116
3119 3116 3114 3112 3110 3106 3102 3100 3098 3096 3093 3092 3089 3088 3086 3086 3085 3085 3085 3085 3085 3087 3088 3088 3090 3091 3092 3094 3095 3095 3096 3097 3099 3100 3100 3100 3102 3104 3105 3107 3108 3110 3112
3113 3110 3107 3104 3102 3098 3094 3091 3088 3086 3083 3081 3078 3077 3076 3075 3075 3074 3073 3074 3075 3076 3076 3080 3081 3082 3084 3086 3088 3090 3089 3090 3092 3094 3096 3096 3096 3099 3100 3102 3104 3105 3107
3107 3103 3099 3096 3092 3089 3085 3082 3079 3075 3073 3070 3069 3067 3066 3066 3063 3063 3063 3061 3061 3064 3065 3067 3069 3072 3074 3077 3080 3083 3083 3083 3085 3087 3090 3091 3091 3093 3095 3097 3099 3101 3102
3099 3095 3092 3088 3084 3080 3077 3074 3071 3068 3064 3060 3058 3056 3057 3056 3054 3051 3050 3052 3050 3051 3051 3053 3055 3056 3063 3053 3066 3073 3075 3074 3079 3080 3082 3085 3086 3087 3089 3092 3093 3096 3098
3091 3087 3084 3081 3078 3073 3070 3067 3064 3061 3058 3053 3049 3048 3048 3046 3044 3044 3040 3039 3040 3038 3040 3043 3046 3047 3049 3054 3057 3061 3061 3061 3067 3072 3074 3077 3080 3082 3083 3086 3088 3090 3093
3084 3081 3078 3074 3071 3067 3063 3060 3055 3052 3050 3046 3039 3037 3033 3036 3035 3033 3031 3031 3029 3028 3026 3029 3029 3031 3034 3039 3036 3042 3049 3053 3053 3060 3065 3068 3071 3074 3077 3078 3081 3084 3086
3077 3073 3070 3067 3064 3060 3056 3054 3049 3045 3041 3040 3036 3029 3022 3020 3017 3019 3022 3022 3021 3018 3015 3013 3015 3017 3019 3024 3023 3026 3026 3043 3042 3043 3051 3057 3061 3065 3068 3072 3074 3077 3080
3071 3067 3064 3061 3058 3053 3049 3046 3043 3039 3035 3031 3030 3026 3020 3013 3007 3002 3007 3006 3006 3006 3005 3003 3001 3002 3004 3006 3010 3020 3019 3026 3031 3032 3038 3043 3049 3054 3058 3063 3067 3069 3073
3066 3062 3059 3056 3052 3048 3044 3039 3035 3032 3028 3023 3019 3016 3014 3008 3004 2998 2988 2995 2995 2991 2992 2991 2990 2989 2989 2990 2993 3001 2997 2995 3005 3015 3025 3032 3036 3042 3048 3052 3057 3061 3065
3061 3056 3053 3050 3046 3040 3037 3034 3029 3025 3020 3017 3012 3007 3003 3000 2994 2990 2985 2981 2978 2981 2977 2978 2978 2977 2976 2975 2976 2974 2978 2984 2989 2991 2981 3017 3023 3028 3037 3043 3046 3052 3056
3053 3049 3046 3043 3038 3035 3030 3026 3022 3018 3014 3010 3005 3000 2995 2991 2987 2981 2975 2970 2967 2969 2965 2964 2964 2963 2963 2963 2963 2962 2962 2970 2975 2984 2986 2994 3003 3012 3024 3030 3036 3040 3046
3045 3042 3040 3037 3032 3028 3023 3019 3016 3012 3007 3003 2998 2993 2988 2984 2979 2975 2969 2961 2955 2954 2953 2950 2951 2951 2951 2950 2949 2949 2948 2951 2957 2962 2971 2968 2983 2996 3009 3017 3023 3029 3034
3040 3036 3034 3031 3026 3021 3016 3011 3007 3003 2999 2995 2990 2986 2981 2976 2971 2967 2963 2957 2949 2940 2936 2940 2937 2940 2940 2940 2937 2935 2935 2938 2942 2946 2952 2962 2961 2975 2990 3001 3009 3016 3023
3034 3031 3027 3023 3019 3014 3009 3004 3000 2995 2991 2987 2982 2978 2974 2969 2964 2959 2954 2950 2944 2937 2922 2927 2926 2926 2926 2927 2926 2921 2922 2925 2930 2935 2943 2950 2955 2954 2959 2981 2993 3001 3009
3027 3024 3021 3016 3012 3008 3002 2998 2993 2988 2983 2978 2974 2969 2965 2960 2955 2950 2945 2940 2935 2930 2919 2914 2915 2913 2913 2910 2912 2910 2908 2910 2914 2920 2932 2934 2940 2945 2946 2964 2977 2986 2994
3021 3017 3014 3010 3005 3000 2996 2991 2986 2982 2976 2971 2966 2961 2956 2951 2946 2941 2935 2931 2926 2921 2913 2902 2903 2903 2899 2899 2895 2894 2893 2895 2896 2904 2914 2919 2930 2936 2931 2943 2959 2970 2978
3014 3011 3007 3004 2998 2994 2989 2985 2980 2974 2969 2963 2958 2952 2946 2941 2937 2932 2927 2921 2916 2910 2906 2896 2887 2890 2886 2885 2881 2879 2878 2879 2881 2886 2894 2904 2916 2925 2928 2937 2946 2956 2962
3008 3005 3000 2996 2993 2987 2983 2978 2972 2966 2960 2955 2949 2943 2937 2931 2926 2921 2916 2911 2906 2899 2894 2889 2881 2876 2874 2873 2868 2861 2864 2864 2865 2871 2877 2886 2901 2911 2918 2923 2932 2940 2948
3002 2998 2993 2990 2986 2978 2976 2970 2963 2958 2951 2945 2939 2933 2927 2921 2915 2910 2905 2900 2895 2889 2883 2878 2872 2865 2864 2860 2857 2852 2847 2850 2855 2858 2863 2872 2883 2894 2902 2908 2917 2925 2933
2996 2992 2988 2983 2978 2970 2967 2962 2955 2949 2943 2936 2929 2922 2916 2910 2904 2900 2896 2890 2885 2878 2873 2867 2862 2855 2853 2848 2844 2841 2836 2837 2840 2850 2848 2854 2867 2876 2887 2894 2904 2912 2921
2989 2986 2981 2976 2971 2964 2958 2954 2947 2940 2933 2927 2920 2913 2905 2899 2894 2888 2885 2880 2877 2871 2864 2857 2851 2849 2840 2839 2832 2830 2827 2825 2828 2836 2837 2842 2854 2864 2876 2885 2896 2902 2908
2984 2980 2974 2969 2963 2957 2950 2946 2938 2931 2923 2918 2911 2904 2896 2889 2884 2878 2872 2868 2865 2861 2855 2849 2842 2837 2831 2826 2822 2818 2813 2812 2815 2822 2829 2831 2847 2854 2863 2872 2883 2892 2899
2978 2973 2968 2963 2957 2950 2943 2937 2929 2922 2915 2909 2902 2895 2888 2880 2874 2869 2861 2856 2854 2851 2846 2841 2835 2828 2823 2818 2813 2807 2805 2802 2801 2810 2819 2823 2836 2844 2849 2861 2872 2881 2889
2972 2967 2962 2957 2951 2944 2937 2930 2922 2913 2906 2900 2894 2888 2882 2873 2866 2860 2853 2846 2842 2839 2834 2831 2828 2822 2816 2810 2805 2800 2795 2793 2794 2799 2808 2814 2825 2831 2838 2847 2859 2869 2876